[[{"header":{"parameterUnit":"m.s-1","parameterCategory":1,"la1":30.2991,"la2":30.254,"lo1":-89.0895,"lo2":-89.0444,"dy":0.0017,"dx":0.0017,"nx":28,"ny":28,"refTime":"2023-08-20T09:00:00:Z","depth":0,"parameterNumber":2,"parameterNumberName":"U-component_of_WINDS"},"data":[0,0,0,0,0,0,0,0,0,0,0,0,0,0,0,0,0,0,0,0,0,0,0,0,0,0,0,0,0,0,0,0,0,0,0,0,0,0,0,0,0,0,0,0,0,0,0,0,0,0,0,0,0,0,0,0,0,0,-6.6284,-6.6284,0,-6.6246,-6.6245,-6.6245,-6.6114,-6.6111,-6.6108,-6.6106,-6.6068,-6.607,-6.6072,0,0,0,0,0,0,0,0,0,0,0,0,0,-6.6249,-6.6251,-6.6284,-6.6284,-6.6284,-6.6246,-6.6245,-6.6245,-6.6115,-6.6111,-6.6108,-6.6104,-6.6068,-6.607,-6.6072,0,0,0,0,0,0,0,0,0,0,0,0,0,-6.6243,-6.6251,-6.6285,-6.6214,-6.6207,-6.6246,-6.6245,-6.6245,-6.6115,-6.6111,-6.6107,-6.6103,-6.6067,-6.607,-6.6072,-6.6177,0,0,-6.608,-6.6081,0,0,0,0,0,0,0,0,-6.6244,-6.6245,-6.6225,-6.6219,-6.6211,-6.618,-6.6219,-6.6222,-6.6117,-6.615,-6.6105,-6.61,-6.6109,-6.6108,-6.6111,-6.6175,-6.6173,-6.608,-6.6082,-6.6083,-6.6084,0,0,0,0,0,0,0,-6.6244,-6.6246,-6.6269,-6.6225,-6.6217,-6.6185,-6.618,-6.6219,-6.6155,-6.6147,-6.6138,-6.6135,-6.6105,-6.6108,-6.6109,-6.6173,-6.608,-6.6083,-6.6084,-6.6085,-6.6322,-6.6326,0,0,0,0,0,0,-6.6254,-6.6247,-6.627,-6.6268,-6.6217,-6.619,-6.6183,-6.6195,-6.6154,-6.6144,-6.6138,-6.6129,-6.6106,-6.6106,-6.6107,-6.6226,-6.6083,-6.6086,-6.6087,-6.6317,-6.6323,-6.6328,0,0,0,0,0,0,-6.6254,-6.6258,-6.6272,-6.6255,-6.6254,-6.6195,-6.6209,-6.6196,-6.62,-6.6148,-6.6136,-6.6154,-6.6103,-6.6103,-6.616,-6.6223,-6.6087,-6.6089,-6.6312,-6.6319,-6.6325,-6.6466,0,0,0,0,0,0,-6.6254,-6.6258,-6.6296,-6.6257,-6.6256,-6.6325,-6.6213,-6.6199,-6.6204,-6.6191,-6.6159,-6.6149,-6.6099,-6.6157,-6.6163,-6.6224,-6.6091,-6.6306,-6.6315,-6.6323,-6.6456,-6.6477,-6.6496,0,0,0,0,0,-6.6253,-6.6338,-6.6299,-6.6302,-6.6302,-6.6329,-6.6328,-6.6268,-6.621,-6.6248,-6.6215,-6.615,-6.6216,-6.6164,-6.6169,-6.6233,-6.6301,-6.6312,-6.6323,-6.6447,-6.6473,-6.6495,0,0,0,0,0,0,-6.6386,-6.6331,-6.6287,-6.6362,-6.6351,-6.6307,-6.6353,-6.6298,-6.6304,-6.6292,-6.6218,-6.6212,-6.628,-6.6262,-6.6205,-6.6332,-6.6248,-6.626,-6.6341,-6.6365,-6.6385,-6.6387,-6.6093,0,0,0,0,0,-6.6425,-6.645,-6.6401,-6.6472,-6.6469,-6.6413,-6.6422,-6.6377,-6.6363,-6.6358,-6.6329,-6.6319,-6.6337,-6.6351,-6.6364,-6.6454,-6.6445,-6.65,-6.652,-6.6537,-6.6548,-6.6594,-6.6618,-6.6363,-6.6363,-6.6363,0,0,-6.6503,-6.6476,-6.6497,-6.6498,-6.6484,-6.6514,-6.6409,-6.6444,-6.6466,-6.6363,-6.6415,-6.6394,-6.6378,-6.6452,-6.6483,-6.6439,-6.6617,-6.6551,-6.6564,-6.6566,-6.6608,-6.6632,-6.6654,-6.637,-6.6369,-6.6368,0,0,-6.6661,-6.6644,-6.6701,-6.669,-6.6671,-6.6633,-6.6647,-6.6612,-6.6594,-6.6645,-6.6569,-6.6594,-6.6627,-6.6619,-6.6619,-6.6779,-6.6719,-6.6786,-6.6889,-6.6936,-6.6956,-6.6973,-6.7029,-6.7051,-6.6797,-6.6797,-6.6798,0,-6.6762,-6.6802,-6.6737,-6.6777,-6.678,-6.669,-6.6748,-6.6741,-6.6728,-6.6732,-6.6684,-6.6724,-6.6707,-6.6778,-6.6817,-6.6821,-6.6835,-6.6787,-6.6958,-6.6975,-6.699,-6.7043,-6.7064,-6.6805,-6.6804,-6.6804,-6.6803,0,-6.6926,-6.6956,-6.7004,-6.6994,-6.7002,-6.7052,-6.6996,-6.7013,-6.6969,-6.6937,-6.6991,-6.6968,-6.6976,-6.699,-6.6947,-6.7055,-6.7029,-6.6971,-6.6884,-6.7024,-6.7072,-6.7092,-6.6817,-6.6814,-6.6812,-6.681,0,0,-6.7164,-6.7119,-6.7138,-6.7132,-6.7106,-6.7128,-6.7175,-6.7182,-6.7198,-6.7194,-6.7231,-6.7262,-6.7209,-6.7209,-6.7165,-6.7206,-6.7334,-6.7143,-6.7141,-6.7178,-6.7452,-6.7495,-6.7519,-6.7295,-6.7299,-6.7302,-6.7453,0,-6.7313,-6.7388,-6.7332,-6.7417,-6.7444,-6.7361,-6.7401,-6.739,-6.7363,-6.7383,-6.7353,-6.7376,-6.7304,-6.7304,-6.7341,-6.731,-6.7387,-6.7299,-6.7329,-6.7331,-6.7334,-6.7545,-6.7589,-6.7733,-6.7472,-6.7475,-6.7477,0,-6.7496,-6.7499,-6.7587,-6.7557,-6.7566,-6.7603,-6.7606,-6.7627,-6.7614,-6.7591,-6.7594,-6.7539,-6.7584,-6.7501,-6.7562,-6.7503,-6.7513,-6.75,-6.7505,-6.7503,-6.7411,-6.7548,-6.7778,-6.7799,-6.7507,-6.7504,-6.7502,0,-6.766,-6.7687,-6.7742,-6.7741,-6.7707,-6.7735,-6.7723,-6.7705,-6.7714,-6.7718,-6.7723,-6.7733,-6.7738,-6.7748,-6.7698,-6.7642,-6.7766,-6.7678,-6.7748,-6.775,-6.7776,-6.7774,-6.8009,-6.7786,-6.7785,-6.7785,-6.7784,0,-6.7831,-6.7888,-6.7816,-6.785,-6.7912,-6.7849,-6.7913,-6.7891,-6.7877,-6.7907,-6.7836,-6.7866,-6.7799,-6.7823,-6.7785,-6.7841,-6.7844,-6.7828,-6.7816,-6.7833,-6.7835,-6.7837,-6.7825,-6.7791,-6.7789,-6.7788,-6.7787,0,-6.8023,-6.7977,-6.8032,-6.7997,-6.7989,-6.8036,-6.8006,-6.8037,-6.8006,-6.8045,-6.8051,-6.8002,-6.8026,-6.7979,-6.7996,-6.7971,-6.805,-6.8024,-6.8054,-6.8046,-6.8118,-6.8112,-6.836,-6.8389,-6.8149,-6.8152,-6.8154,0,-6.8134,-6.8176,-6.8145,-6.816,-6.8151,-6.8176,-6.8185,-6.8126,-6.8138,-6.8128,-6.8161,-6.8179,-6.819,-6.8233,-6.82,-6.8214,-6.8187,-6.8273,-6.8188,-6.8204,-6.8187,-6.8184,-6.8188,-6.829,-6.8293,-6.8295,-6.8297,0,-6.8336,-6.8312,-6.8327,-6.8336,-6.8348,-6.8352,-6.8351,-6.8367,-6.8305,-6.8323,-6.8346,-6.8355,-6.8374,-6.8393,-6.84,-6.8387,-6.8333,-6.8325,-6.8341,-6.8357,-6.8373,-6.8365,-6.81,-6.8319,-6.8316,-6.8315,-6.8314,-6.8313,-6.849,-6.8524,-6.8508,-6.8528,-6.8521,-6.8522,-6.855,-6.8523,-6.8541,-6.8551,-6.8516,-6.8548,-6.8537,-6.8539,-6.8534,-6.8559,-6.852,-6.8544,-6.855,-6.8557,-6.8568,-6.8371,-6.856,-6.8559,-6.8559,-6.8558,-6.8558,0,-6.8688,-6.8674,-6.8693,-6.8694,-6.871,-6.8658,-6.8655,-6.8672,-6.8701,-6.8694,-6.8707,-6.8735,-6.8754,-6.8724,-6.8738,-6.8764,-6.8739,-6.877,-6.8766,-6.8765,-6.8602,-6.8586,-6.879,-6.8789,-6.8789,-6.8789,-6.8789,-6.8789,-6.8792,-6.8847,-6.8821,-6.8872,-6.8858,-6.8889,-6.8891,-6.8893,-6.8887,-6.8921,-6.8937,-6.8917,-6.8902,-6.8915,-6.893,-6.8921,-6.8929,-6.8968,-6.895,-6.8799,-6.8776,-6.8754,-6.8738,-6.8971,-6.8971,-6.911,-6.9112,-6.9113]},{"header":{"parameterUnit":"m.s-1","parameterCategory":1,"la1":30.2991,"la2":30.254,"lo1":-89.0895,"lo2":-89.0444,"dy":0.0017,"dx":0.0017,"nx":28,"ny":28,"refTime":"2023-08-20T09:00:00:Z","depth":0,"parameterNumber":3,"parameterNumberName":"V-component_of_WINDS"},"data":[0,0,0,0,0,0,0,0,0,0,0,0,0,0,0,0,0,0,0,0,0,0,0,0,0,0,0,0,0,0,0,0,0,0,0,0,0,0,0,0,0,0,0,0,0,0,0,0,0,0,0,0,0,0,0,0,0,0,1.8786,1.8786,0,1.8859,1.886,1.8861,1.8954,1.8955,1.8957,1.8958,1.903,1.9031,1.9031,0,0,0,0,0,0,0,0,0,0,0,0,0,1.8723,1.8724,1.8786,1.8786,1.8787,1.8859,1.886,1.8861,1.8953,1.8955,1.8957,1.8959,1.903,1.903,1.9031,0,0,0,0,0,0,0,0,0,0,0,0,0,1.8769,1.8724,1.8785,1.8842,1.8848,1.8859,1.886,1.8862,1.8953,1.8955,1.8958,1.896,1.903,1.903,1.9031,1.8991,0,0,1.9034,1.9034,0,0,0,0,0,0,0,0,1.8766,1.8771,1.8833,1.8838,1.8845,1.89,1.8865,1.8905,1.8953,1.8913,1.8958,1.8961,1.8985,1.8989,1.8998,1.8995,1.8998,1.9034,1.9034,1.9035,1.9035,0,0,0,0,0,0,0,1.8763,1.8768,1.8815,1.8834,1.8841,1.8863,1.8872,1.8873,1.8935,1.8917,1.8924,1.8931,1.8988,1.8997,1.9,1.8999,1.9034,1.9034,1.9035,1.9035,1.8968,1.8966,0,0,0,0,0,0,1.8751,1.8765,1.8812,1.8817,1.881,1.8863,1.8873,1.888,1.8936,1.8946,1.8929,1.8935,1.8995,1.8999,1.9003,1.8961,1.9035,1.9035,1.9036,1.897,1.8967,1.8965,0,0,0,0,0,0,1.875,1.8755,1.8809,1.8793,1.8802,1.8862,1.8869,1.888,1.8889,1.8945,1.8956,1.8927,1.8997,1.9002,1.8994,1.8964,1.9036,1.9036,1.8973,1.8969,1.8966,1.8874,0,0,0,0,0,0,1.8747,1.8754,1.8739,1.8792,1.8802,1.8799,1.8867,1.888,1.889,1.8899,1.8946,1.8956,1.8999,1.8992,1.8995,1.8967,1.9037,1.8976,1.8971,1.8967,1.888,1.8868,1.8858,0,0,0,0,0,1.8745,1.8709,1.8738,1.8743,1.8786,1.8797,1.8803,1.8854,1.8888,1.8874,1.891,1.8954,1.8968,1.8991,1.8994,1.8966,1.8978,1.8972,1.8967,1.8885,1.8871,1.8858,0,0,0,0,0,0,1.865,1.8717,1.875,1.873,1.8757,1.8813,1.8796,1.8837,1.8854,1.8861,1.8923,1.8933,1.8917,1.8941,1.8966,1.8931,1.8979,1.8975,1.8916,1.8902,1.8891,1.8885,1.9038,0,0,0,0,0,1.8627,1.8631,1.869,1.8667,1.8679,1.8735,1.8742,1.878,1.881,1.8822,1.8857,1.8884,1.8895,1.89,1.8913,1.8885,1.8897,1.8868,1.8856,1.8847,1.8842,1.8829,1.8817,1.8948,1.8948,1.8948,0,0,1.8578,1.8616,1.8615,1.8649,1.8675,1.8677,1.8744,1.8744,1.8747,1.8821,1.8816,1.8843,1.8878,1.886,1.8854,1.8879,1.8809,1.8841,1.8833,1.8832,1.8823,1.881,1.8799,1.8945,1.8945,1.8946,0,0,1.8492,1.8521,1.8506,1.8531,1.857,1.8608,1.8604,1.8654,1.8675,1.8672,1.8728,1.8732,1.8748,1.8771,1.8784,1.8709,1.875,1.8712,1.8652,1.864,1.8629,1.8621,1.8593,1.8583,1.8707,1.8706,1.8706,0,1.8427,1.8435,1.8493,1.849,1.8503,1.8573,1.8558,1.8579,1.8619,1.8626,1.8655,1.8678,1.8706,1.8695,1.8677,1.8685,1.8683,1.8705,1.8626,1.8618,1.8611,1.8585,1.8575,1.8701,1.8702,1.8702,1.8703,0,1.8353,1.8357,1.834,1.8379,1.839,1.8381,1.8437,1.8442,1.848,1.8514,1.851,1.8547,1.8568,1.8569,1.8604,1.8562,1.8577,1.8615,1.8665,1.8592,1.8569,1.856,1.8694,1.8696,1.8697,1.8699,0,0,1.8206,1.8279,1.8271,1.829,1.8339,1.8343,1.8338,1.8361,1.8363,1.8389,1.8386,1.84,1.8436,1.8451,1.849,1.8479,1.8417,1.8519,1.8521,1.8498,1.8373,1.8343,1.8331,1.8446,1.8444,1.8443,1.837,0,1.8128,1.8123,1.8176,1.8156,1.8161,1.8229,1.8224,1.8253,1.8286,1.8295,1.8331,1.834,1.8387,1.8397,1.8389,1.8426,1.8393,1.8433,1.8442,1.8442,1.843,1.832,1.8288,1.8217,1.8362,1.836,1.8359,0,1.8035,1.8058,1.8039,1.809,1.8094,1.8089,1.8115,1.8123,1.8157,1.8182,1.82,1.8246,1.8244,1.8292,1.829,1.8316,1.8324,1.8343,1.8341,1.8343,1.8395,1.8317,1.8196,1.8184,1.8346,1.8347,1.8348,0,1.7929,1.7955,1.7947,1.7962,1.8021,1.8016,1.804,1.8078,1.8089,1.8111,1.8119,1.8141,1.8152,1.8167,1.8218,1.8248,1.8209,1.8262,1.8229,1.8228,1.8216,1.8216,1.8093,1.8223,1.8223,1.8223,1.8224,0,1.7836,1.7821,1.7901,1.7895,1.7882,1.7944,1.7928,1.7959,1.7992,1.7994,1.8054,1.8054,1.8122,1.813,1.8169,1.8161,1.8166,1.8185,1.8196,1.8179,1.8176,1.8183,1.8189,1.8221,1.8221,1.8222,1.8222,0,1.7714,1.7767,1.7763,1.7821,1.7835,1.7822,1.7871,1.7869,1.7907,1.7909,1.7913,1.7972,1.7984,1.8037,1.8061,1.8088,1.8066,1.8088,1.8055,1.8061,1.8025,1.8027,1.7901,1.7888,1.8027,1.8026,1.8024,0,1.765,1.764,1.7698,1.7705,1.7727,1.7736,1.7748,1.7809,1.7819,1.7859,1.7852,1.787,1.7887,1.7904,1.7949,1.7968,1.799,1.7945,1.7993,1.7977,1.7988,1.7987,1.7987,1.7933,1.7931,1.793,1.7929,0,1.753,1.7558,1.7573,1.7598,1.7611,1.7633,1.7659,1.7661,1.7729,1.7737,1.7752,1.7765,1.7792,1.7808,1.7836,1.7861,1.7905,1.7914,1.7907,1.7889,1.787,1.7879,1.8025,1.7916,1.7917,1.7918,1.7919,1.7919,1.7435,1.743,1.7471,1.7486,1.7513,1.7536,1.7537,1.7576,1.7589,1.7617,1.7652,1.7662,1.7699,1.774,1.7762,1.777,1.7795,1.7786,1.7783,1.7779,1.7771,1.787,1.7776,1.7776,1.7776,1.7777,1.7777,0,1.7318,1.7348,1.7362,1.7397,1.741,1.7453,1.7485,1.7492,1.75,1.7531,1.7548,1.7565,1.7582,1.7629,1.7651,1.7648,1.7669,1.7652,1.7652,1.7657,1.7748,1.7751,1.7634,1.7634,1.7634,1.7634,1.7634,1.7634,1.7259,1.7253,1.7285,1.7294,1.7324,1.7335,1.735,1.7371,1.7397,1.7413,1.7428,1.746,1.7497,1.7522,1.754,1.7554,1.7558,1.7533,1.7553,1.7637,1.765,1.7663,1.7667,1.7534,1.7534,1.7462,1.7461,1.746]}]]